Location: The Saddle
(36.8333°N, 80.3417°W)
Time: 13:11:38
(UTC-04:00)

AO-7 - Pass Details

Date: 04 April 2023
Orbit: 1439 x 1459 km, 101.9° (Epoch: 02 June)

Event Time Altitude Azimuth Distance (km) Brightness Sun altitude
Rises 05:11:44 0° 26° (NNE) 4,556 ? -22.1°
Reaches altitude 10° 05:14:54 10° 36° (NE) 3,571 ? -21.6°
Maximum altitude 05:22:16 34° 99° (E) 2,197 ? -20.2°
Drops below altitude 10° 05:29:33 10° 161° (SSE) 3,544 ? -18.9°
Sets 05:32:39 0° 170° (S) 4,516 ? -18.3°
